Location: Bletchingley
(51.2333°N, 0.1000°W)
Time: 02:23:02
(UTC+00:00)

ATLAS 2AS CENTAUR R/B - Pass Details

Date: 18 September 2020
Orbit: 939 x 1273 km, 63.7° (Epoch: 27 October)

Event Time Altitude Azimuth Distance (km) Brightness Sun altitude
Rises 21:01:50 0° 202° (SSW) 4,194 5.6 -25.9°
Reaches altitude 10° 21:04:39 10° 198° (SSW) 3,247 5.0 -26.3°
Enters shadow 21:04:49 11° 198° (SSW) 3,195 5.0 -26.3°
Exits shadow 21:11:57 56° 134° (SE) 1,485 3.0 -27.1°
Maximum altitude 21:12:21 57° 123° (ESE) 1,477 3.0 -27.2°
Drops below altitude 10° 21:19:59 10° 48° (NE) 3,226 5.2 -28.0°
Sets 21:22:47 0° 45° (NE) 4,166 5.8 -28.3°
